Home > Weather > Crawley > Past weeks

Flag for United Kingdom Weather for the Past 2 Weeks in Crawley, England, United Kingdom

Now
41 °F

Partly sunny.


Feels Like: 36 °F
Forecast: N/A
Wind: 8 mph from Northeast

Location: London / Gatwick Airport

Current Time: Feb 12, 2016 at 4:55:16 PM

Latest Report: Feb 12, 2016 at 4:20 PM


Visibility: N/A

Pressure: 29.36 "Hg

Humidity: 87%

Dew point: 37 °F

Location of CrawleyLocation

Historic Weather in Crawley — Graph

°F

Crawley Temperature Yesterday

Maximum temperature yesterday: 46 °F (at 12:50 PM)
Minimum temperature yesterday: 27 °F (at 3:20 AM)
Average temperature yesterday: 34 °F

High & Low Weather Summary for the Past Weeks

 TemperatureHumidityPressure
High55 °F (Jan 31, 4:20 PM)100% (Jan 29, 6:50 PM)30.39 "Hg (Jan 29, 6:50 PM)
Low27 °F (Feb 11, 3:20 AM)49% (Jan 30, 1:50 PM)29.09 "Hg (Feb 8, 2:50 AM)
Average45 °F82%29.75 "Hg
* Reported Jan 28 3:20 PM — Feb 12 3:20 PM, Crawley, Weather by CustomWeather, © 2016

Note: Actual official high and low records may vary slightly from our data, if they occured in-between our weather recording intervals... More about our weather records

Advertising

Crawley Weather History for the Previous 24 Hours

 ConditionsComfort  
Time TempWeatherWind HumidityBarometerVisibility
3:20 PM
Fri, Feb 12
41 °FPartly sunny.9 mph87%29.33 "HgN/A
2:50 PM41 °FPartly sunny.10 mph87%29.33 "HgN/A
2:20 PM41 °FDrizzle. Partly sunny.12 mph87%29.33 "Hg5 mi
1:50 PM39 °FDrizzle. Partly sunny.10 mph93%29.33 "Hg4 mi
1:20 PM39 °FPartly sunny.10 mph93%29.33 "HgN/A
12:50 PM41 °FPartly sunny.10 mph87%29.33 "HgN/A
12:20 PM41 °FPartly sunny.13 mph87%29.33 "HgN/A
11:50 AM41 °FPartly sunny.10 mph87%29.33 "HgN/A
11:20 AM41 °FSprinkles. Partly sunny.10 mph87%29.36 "HgN/A
10:50 AM41 °FPartly sunny.12 mph87%29.36 "HgN/A
10:20 AM39 °FPartly sunny.8 mph100%29.36 "HgN/A
9:50 AM37 °FFog.6 mph93%29.36 "Hg3 mi
9:20 AM36 °FFog.8 mph100%29.36 "Hg1 mi
8:50 AM34 °FFog.6 mph100%29.36 "Hg1 mi
8:20 AM34 °FSnow. Cloudy.6 mph93%29.36 "Hg2 mi
7:50 AM32 °FSleet. Ice fog.6 mph100%29.36 "Hg2 mi
7:20 AM32 °FIce fog.6 mph100%29.36 "Hg3 mi
6:50 AM32 °FPassing clouds.6 mph93%29.39 "Hg4 mi
6:20 AM30 °FPassing clouds.7 mph100%29.39 "Hg4 mi
5:20 AM32 °FPassing clouds.6 mph93%29.42 "HgN/A
4:50 AM32 °FPassing clouds.6 mph93%29.42 "HgN/A
4:20 AM32 °FPassing clouds.6 mph100%29.42 "HgN/A
3:50 AM36 °FPassing clouds.7 mph93%29.45 "HgN/A
3:20 AM36 °FLight rain. Passing clouds.5 mph100%29.47 "HgN/A
2:50 AM32 °FPassing clouds.3 mph100%29.47 "HgN/A
2:20 AM30 °FClear.5 mph93%29.50 "Hg10 mi
1:50 AM30 °FClear.3 mph93%29.50 "Hg10 mi
1:20 AM30 °FPassing clouds.3 mph93%29.50 "HgN/A
12:50 AM30 °FPassing clouds.3 mph100%29.50 "Hg4 mi
12:20 AM30 °FPartly cloudy.5 mph100%29.53 "Hg4 mi
11:50 PM
Thu, Feb 11
30 °FClear.2 mph100%29.53 "Hg10 mi
11:20 PM28 °FClear.2 mph100%29.53 "Hg10 mi
10:50 PM30 °FClear.3 mph100%29.56 "Hg10 mi
9:50 PM32 °FPassing clouds.5 mph93%29.59 "Hg5 mi
9:20 PM32 °FPassing clouds.3 mph93%29.59 "HgN/A
8:50 PM34 °FClear.3 mph93%29.59 "Hg10 mi
8:20 PM36 °FPassing clouds.3 mph87%29.59 "HgN/A
7:50 PM36 °FPassing clouds.5 mph93%29.62 "HgN/A
7:20 PM39 °FPassing clouds.3 mph81%29.62 "HgN/A
6:50 PM41 °FPassing clouds.5 mph76%29.62 "HgN/A
5:50 PM41 °FPassing clouds.3 mph76%29.62 "HgN/A
5:20 PM43 °FPassing clouds.5 mph66%29.62 "HgN/A
4:50 PM41 °FBroken clouds.No wind70%29.62 "HgN/A
4:20 PM43 °FPassing clouds.2 mph66%29.62 "HgN/A
Weather by CustomWeather, © 2016

See weather overviewHow to use our weather pages